FDX739 SYCJ-SBFZ

Flight info

Callsign FDX739
Flight time 3h 3m
Altitude 33000
Route GEBON UG443 ZY UG449 BEL UZ81 CROMO
Aircraft MD11/H-SDE1E2E3FGHIJ2J3J4J5M1RWXY/LB1D1

Departure

Time 2026-04-22 13:12
Airport Cheddi Jagan International Airport (SYCJ)

Arrival

Time 2026-04-22 16:16
Airport Pinto Martins International Airport (SBFZ)
Time Latitude Longitude Altitude Speed Heading
2026-04-22 12:34 6.50246 -58.25338 101 ft 0 kts 242°
2026-04-22 13:01 6.50249 -58.25333 102 ft 2 kts 247°
2026-04-22 13:02 6.50254 -58.25319 101 ft 2 kts 251°
2026-04-22 13:02 6.50259 -58.25305 101 ft 2 kts 249°
2026-04-22 13:02 6.50264 -58.25291 101 ft 2 kts 249°
2026-04-22 13:02 6.50270 -58.25277 101 ft 2 kts 249°
2026-04-22 13:03 6.50275 -58.25263 101 ft 2 kts 249°
2026-04-22 13:03 6.50280 -58.25248 101 ft 2 kts 249°
2026-04-22 13:03 6.50286 -58.25234 101 ft 2 kts 249°
2026-04-22 13:03 6.50290 -58.25222 101 ft 0 kts 249°
2026-04-22 13:04 6.50293 -58.25216 101 ft 1 kts 226°
2026-04-22 13:04 6.50295 -58.25214 101 ft 0 kts 225°
2026-04-22 13:06 6.50287 -58.25222 101 ft 5 kts 225°
2026-04-22 13:06 6.50252 -58.25254 101 ft 5 kts 207°
2026-04-22 13:07 6.50227 -58.25258 101 ft 1 kts 173°
2026-04-22 13:07 6.50200 -58.25245 101 ft 9 kts 150°
2026-04-22 13:07 6.50153 -58.25208 102 ft 8 kts 140°
2026-04-22 13:07 6.50091 -58.25197 102 ft 14 kts 201°
2026-04-22 13:08 6.49986 -58.25283 103 ft 20 kts 221°
2026-04-22 13:08 6.49880 -58.25382 104 ft 20 kts 226°
2026-04-22 13:08 6.49783 -58.25484 105 ft 20 kts 226°
2026-04-22 13:08 6.49685 -58.25587 105 ft 20 kts 226°
2026-04-22 13:09 6.49585 -58.25691 105 ft 20 kts 225°
2026-04-22 13:09 6.49479 -58.25792 104 ft 21 kts 224°
2026-04-22 13:09 6.49368 -58.25903 101 ft 23 kts 225°
2026-04-22 13:09 6.49249 -58.26023 96 ft 25 kts 225°
2026-04-22 13:10 6.49116 -58.26155 89 ft 28 kts 224°
2026-04-22 13:10 6.48957 -58.26299 78 ft 32 kts 218°
2026-04-22 13:10 6.48782 -58.26454 68 ft 34 kts 225°
2026-04-22 13:10 6.48703 -58.26546 65 ft 3 kts 281°
2026-04-22 13:11 6.48721 -58.26551 66 ft 2 kts 17°
2026-04-22 13:11 6.48728 -58.26546 66 ft 0 kts 39°
2026-04-22 13:11 6.48840 -58.26436 70 ft 60 kts 45°
2026-04-22 13:11 6.49329 -58.25949 100 ft 134 kts 45°
2026-04-22 13:12 6.50137 -58.25142 130 ft 189 kts 46°
2026-04-22 13:12 6.50976 -58.24055 572 ft 201 kts 63°
2026-04-22 13:12 6.51437 -58.22733 1293 ft 203 kts 69°
2026-04-22 13:12 6.51824 -58.21444 2322 ft 192 kts 79°
2026-04-22 13:13 6.51685 -58.20150 3084 ft 190 kts 112°
2026-04-22 13:13 6.51030 -58.18936 3442 ft 208 kts 117°
2026-04-22 13:13 6.50304 -58.17628 3901 ft 220 kts 112°
2026-04-22 13:13 6.49676 -58.16184 4502 ft 229 kts 109°
2026-04-22 13:14 6.49095 -58.14678 5218 ft 235 kts 109°
2026-04-22 13:14 6.48527 -58.13155 5942 ft 239 kts 108°
2026-04-22 13:14 6.47943 -58.11575 6706 ft 242 kts 108°
2026-04-22 13:14 6.47360 -58.09999 7462 ft 244 kts 108°
2026-04-22 13:15 6.46772 -58.08398 8177 ft 247 kts 109°
2026-04-22 13:15 6.46176 -58.06783 8880 ft 249 kts 109°
2026-04-22 13:15 6.45579 -58.05160 9546 ft 252 kts 109°
2026-04-22 13:15 6.44964 -58.03492 10178 ft 256 kts 109°
2026-04-22 13:16 6.44352 -58.01828 10794 ft 259 kts 109°
2026-04-22 13:16 6.43722 -58.00114 11385 ft 264 kts 109°
2026-04-22 13:16 6.43078 -57.98367 11918 ft 270 kts 109°
2026-04-22 13:16 6.42425 -57.96589 12417 ft 277 kts 110°
2026-04-22 13:17 6.41749 -57.94748 12980 ft 282 kts 110°
2026-04-22 13:17 6.41061 -57.92873 13544 ft 286 kts 111°
2026-04-22 13:17 6.40355 -57.90969 13871 ft 303 kts 111°
2026-04-22 13:17 6.39590 -57.88900 13947 ft 328 kts 110°
2026-04-22 13:18 6.38770 -57.86671 14030 ft 353 kts 110°
2026-04-22 13:18 6.37885 -57.84262 14102 ft 379 kts 110°
2026-04-22 13:18 6.36944 -57.81708 14254 ft 400 kts 110°
2026-04-22 13:18 6.35973 -57.79080 14759 ft 410 kts 110°
2026-04-22 13:19 6.34973 -57.76362 15369 ft 417 kts 110°
2026-04-22 13:19 6.33965 -57.73617 16017 ft 422 kts 110°
2026-04-22 13:19 6.32947 -57.70838 16682 ft 426 kts 110°
2026-04-22 13:19 6.31923 -57.68050 17311 ft 431 kts 110°
2026-04-22 13:20 6.30881 -57.65214 17917 ft 435 kts 110°
2026-04-22 13:20 6.29839 -57.62375 18508 ft 440 kts 110°
2026-04-22 13:20 6.28773 -57.59475 19064 ft 445 kts 110°
2026-04-22 13:20 6.27692 -57.56533 19632 ft 449 kts 110°
2026-04-22 13:21 6.26617 -57.53606 20193 ft 453 kts 110°
2026-04-22 13:21 6.25523 -57.50626 20727 ft 457 kts 110°
2026-04-22 13:21 6.24411 -57.47600 21240 ft 462 kts 110°
2026-04-22 13:21 6.23302 -57.44576 21759 ft 466 kts 110°
2026-04-22 13:22 6.22176 -57.41510 22254 ft 470 kts 110°
2026-04-22 13:22 6.21046 -57.38452 22789 ft 473 kts 110°
2026-04-22 13:22 6.19894 -57.35336 23336 ft 476 kts 110°
2026-04-22 13:22 6.18751 -57.32246 23870 ft 478 kts 110°
2026-04-22 13:23 6.17586 -57.29091 24390 ft 481 kts 110°
2026-04-22 13:23 6.16420 -57.25940 24905 ft 483 kts 110°
2026-04-22 13:23 6.15249 -57.22764 25414 ft 485 kts 110°
2026-04-22 13:23 6.14085 -57.19616 25926 ft 487 kts 110°
2026-04-22 13:24 6.12899 -57.16406 26511 ft 487 kts 110°
2026-04-22 13:24 6.11727 -57.13226 27048 ft 488 kts 110°
2026-04-22 13:24 6.10551 -57.10040 27515 ft 490 kts 110°
2026-04-22 13:24 6.09361 -57.06815 27978 ft 492 kts 110°
2026-04-22 13:25 6.08174 -57.03600 28421 ft 494 kts 110°
2026-04-22 13:25 6.06985 -57.00377 28986 ft 494 kts 110°
2026-04-22 13:25 6.05833 -56.97161 29709 ft 489 kts 109°
2026-04-22 13:25 6.04751 -56.93937 30451 ft 485 kts 109°
2026-04-22 13:26 6.03683 -56.90745 31126 ft 480 kts 109°
2026-04-22 13:26 6.02632 -56.87619 31768 ft 476 kts 109°
2026-04-22 13:26 6.01566 -56.84461 32364 ft 473 kts 110°
2026-04-22 13:26 6.00520 -56.81370 32869 ft 471 kts 110°
2026-04-22 13:27 5.99463 -56.78260 32932 ft 471 kts 110°
2026-04-22 13:27 5.97346 -56.72031 32961 ft 468 kts 110°
2026-04-22 13:28 5.95235 -56.65825 32974 ft 470 kts 110°
2026-04-22 13:28 5.93119 -56.59584 32973 ft 472 kts 110°
2026-04-22 13:29 5.90995 -56.53324 32966 ft 474 kts 110°
2026-04-22 13:29 5.88862 -56.47036 32966 ft 474 kts 110°
2026-04-22 13:30 5.86722 -56.40724 32958 ft 475 kts 110°
2026-04-22 13:30 5.84596 -56.34448 32967 ft 477 kts 110°
2026-04-22 13:31 5.82454 -56.28129 32967 ft 476 kts 110°
2026-04-22 13:31 5.80323 -56.21838 32970 ft 477 kts 109°
2026-04-22 13:32 5.78165 -56.15503 32961 ft 477 kts 110°
2026-04-22 13:32 5.76016 -56.09219 32975 ft 477 kts 110°
2026-04-22 13:33 5.73858 -56.02903 32966 ft 478 kts 109°
2026-04-22 13:33 5.71692 -55.96556 32966 ft 479 kts 109°
2026-04-22 13:34 5.69531 -55.90224 32972 ft 479 kts 109°
2026-04-22 13:34 5.67379 -55.83914 32968 ft 478 kts 109°
2026-04-22 13:35 5.65208 -55.77549 32958 ft 478 kts 109°
2026-04-22 13:35 5.63061 -55.71252 32971 ft 479 kts 109°
2026-04-22 13:36 5.60899 -55.64909 32970 ft 479 kts 109°
2026-04-22 13:36 5.58759 -55.58625 32974 ft 478 kts 109°
2026-04-22 13:37 5.56586 -55.52249 32972 ft 479 kts 109°
2026-04-22 13:37 5.54425 -55.45898 32969 ft 479 kts 109°
2026-04-22 13:38 5.52271 -55.39577 32963 ft 478 kts 109°
2026-04-22 13:38 5.49042 -55.30139 32957 ft 478 kts 109°
2026-04-22 13:39 5.46882 -55.23824 32971 ft 479 kts 109°
2026-04-22 13:39 5.43991 -55.17812 32971 ft 480 kts 125°
2026-04-22 13:40 5.39477 -55.12876 32976 ft 481 kts 137°
2026-04-22 13:40 5.34535 -55.08298 32966 ft 479 kts 136°
2026-04-22 13:41 5.29712 -55.03726 32956 ft 479 kts 136°
2026-04-22 13:41 5.24875 -54.99097 32962 ft 479 kts 136°
2026-04-22 13:42 5.20034 -54.94460 32966 ft 480 kts 136°
2026-04-22 13:42 5.15195 -54.89823 32968 ft 479 kts 136°
2026-04-22 13:43 5.10369 -54.85198 32969 ft 478 kts 136°
2026-04-22 13:43 5.05566 -54.80599 32980 ft 478 kts 136°
2026-04-22 13:44 5.00724 -54.75964 32975 ft 478 kts 136°
2026-04-22 13:44 4.95889 -54.71329 32991 ft 478 kts 136°
2026-04-22 13:45 4.91049 -54.66691 32984 ft 479 kts 136°
2026-04-22 13:45 4.86203 -54.62045 32995 ft 477 kts 136°
2026-04-22 13:46 4.81405 -54.57447 33003 ft 478 kts 136°
2026-04-22 13:46 4.76560 -54.52810 32986 ft 479 kts 136°
2026-04-22 13:47 4.71745 -54.48208 32988 ft 478 kts 136°
2026-04-22 13:47 4.66895 -54.43570 32994 ft 478 kts 136°
2026-04-22 13:48 4.62092 -54.38929 32996 ft 479 kts 136°
2026-04-22 13:48 4.57290 -54.34269 32984 ft 478 kts 136°
2026-04-22 13:49 4.52438 -54.29567 32980 ft 479 kts 136°
2026-04-22 13:49 4.47634 -54.24913 32986 ft 479 kts 136°
2026-04-22 13:50 4.42832 -54.20262 32992 ft 480 kts 136°
2026-04-22 13:50 4.37967 -54.15546 32990 ft 481 kts 136°
2026-04-22 13:51 4.33140 -54.10870 32989 ft 480 kts 136°
2026-04-22 13:51 4.28304 -54.06181 32987 ft 480 kts 136°
2026-04-22 13:52 4.23502 -54.01527 32990 ft 480 kts 136°
2026-04-22 13:52 4.18619 -53.96795 32989 ft 482 kts 136°
2026-04-22 13:53 4.13802 -53.92125 32993 ft 481 kts 136°
2026-04-22 13:53 4.08941 -53.87416 32990 ft 481 kts 136°
2026-04-22 13:54 4.04102 -53.82729 32998 ft 480 kts 136°
2026-04-22 13:54 3.99301 -53.78088 32999 ft 480 kts 136°
2026-04-22 13:55 3.94463 -53.73409 32990 ft 481 kts 136°
2026-04-22 13:55 3.89614 -53.68719 32972 ft 481 kts 136°
2026-04-22 13:56 3.84769 -53.64034 32982 ft 481 kts 136°
2026-04-22 13:56 3.79931 -53.59355 32995 ft 480 kts 136°
2026-04-22 13:57 3.75104 -53.54685 32996 ft 480 kts 136°
2026-04-22 13:57 3.70261 -53.50000 32989 ft 480 kts 136°
2026-04-22 13:58 3.65464 -53.45360 32987 ft 480 kts 136°
2026-04-22 13:58 3.60592 -53.40660 32990 ft 479 kts 136°
2026-04-22 13:59 3.55783 -53.36024 32999 ft 480 kts 136°
2026-04-22 13:59 3.50963 -53.31375 32997 ft 480 kts 136°
2026-04-22 14:00 3.46137 -53.26718 32993 ft 479 kts 136°
2026-04-22 14:00 3.41298 -53.22052 32995 ft 479 kts 136°
2026-04-22 14:01 3.36502 -53.17425 32999 ft 479 kts 136°
2026-04-22 14:01 3.31649 -53.12743 32993 ft 480 kts 136°
2026-04-22 14:02 3.26845 -53.08108 33001 ft 479 kts 136°
2026-04-22 14:02 3.22019 -53.03453 33001 ft 478 kts 135°
2026-04-22 14:03 3.17212 -52.98815 33001 ft 479 kts 135°
2026-04-22 14:03 3.12408 -52.94177 33008 ft 480 kts 135°
2026-04-22 14:04 3.07564 -52.89504 33003 ft 481 kts 135°
2026-04-22 14:04 3.02720 -52.84833 32993 ft 482 kts 135°
2026-04-22 14:05 2.97841 -52.80136 32991 ft 482 kts 135°
2026-04-22 14:06 2.90571 -52.73131 32986 ft 482 kts 135°
2026-04-22 14:06 2.85713 -52.68451 32981 ft 483 kts 135°
2026-04-22 14:07 2.80856 -52.63770 32978 ft 483 kts 135°
2026-04-22 14:07 2.76019 -52.59110 32979 ft 483 kts 135°
2026-04-22 14:08 2.71127 -52.54398 32977 ft 483 kts 135°
2026-04-22 14:08 2.66256 -52.49705 32970 ft 484 kts 135°
2026-04-22 14:09 2.61559 -52.44901 32974 ft 484 kts 133°
2026-04-22 14:09 2.56849 -52.40006 32971 ft 484 kts 133°
2026-04-22 14:10 2.52147 -52.35144 32973 ft 483 kts 133°
2026-04-22 14:10 2.47465 -52.30316 32982 ft 483 kts 133°
2026-04-22 14:11 2.42745 -52.25450 32985 ft 484 kts 133°
2026-04-22 14:11 2.38039 -52.20602 32989 ft 484 kts 133°
2026-04-22 14:12 2.33341 -52.15763 32988 ft 485 kts 133°
2026-04-22 14:12 2.28609 -52.10885 32992 ft 486 kts 133°
2026-04-22 14:13 2.23866 -52.05998 32992 ft 485 kts 133°
2026-04-22 14:13 2.19143 -52.01127 32994 ft 485 kts 133°
2026-04-22 14:14 2.14419 -51.96257 32990 ft 485 kts 133°
2026-04-22 14:14 2.09723 -51.91416 32991 ft 484 kts 134°
2026-04-22 14:15 2.04999 -51.86553 32991 ft 484 kts 133°
2026-04-22 14:15 2.00242 -51.81660 32991 ft 484 kts 133°
2026-04-22 14:16 1.95520 -51.76800 32987 ft 484 kts 133°
2026-04-22 14:16 1.90745 -51.71885 32985 ft 485 kts 133°
2026-04-22 14:17 1.86032 -51.67032 32980 ft 485 kts 133°
2026-04-22 14:17 1.81298 -51.62157 32985 ft 484 kts 133°
2026-04-22 14:18 1.76566 -51.57287 32991 ft 485 kts 133°
2026-04-22 14:18 1.71836 -51.52419 32990 ft 485 kts 133°
2026-04-22 14:19 1.67101 -51.47545 32984 ft 486 kts 133°
2026-04-22 14:19 1.62374 -51.42677 32978 ft 487 kts 133°
2026-04-22 14:20 1.55289 -51.35385 32982 ft 487 kts 133°
2026-04-22 14:20 1.50537 -51.30491 32970 ft 488 kts 133°
2026-04-22 14:21 1.43242 -51.23329 32969 ft 489 kts 135°
2026-04-22 14:22 1.35858 -51.16125 32967 ft 489 kts 135°
2026-04-22 14:23 1.28476 -51.08901 32957 ft 491 kts 135°
2026-04-22 14:23 1.23536 -51.04068 32956 ft 493 kts 135°
2026-04-22 14:24 1.18576 -50.99211 32952 ft 493 kts 135°
2026-04-22 14:24 1.13626 -50.94374 32954 ft 493 kts 135°
2026-04-22 14:25 1.08684 -50.89540 32948 ft 493 kts 135°
2026-04-22 14:25 1.03731 -50.84693 32944 ft 493 kts 135°
2026-04-22 14:26 0.98787 -50.79855 32939 ft 492 kts 135°
2026-04-22 14:26 0.93834 -50.75010 32948 ft 491 kts 135°
2026-04-22 14:27 0.88924 -50.70204 32955 ft 491 kts 135°
2026-04-22 14:27 0.83974 -50.65366 32947 ft 492 kts 135°
2026-04-22 14:28 0.79088 -50.60590 32937 ft 492 kts 134°
2026-04-22 14:28 0.74176 -50.55786 32938 ft 490 kts 134°
2026-04-22 14:29 0.69277 -50.50995 32944 ft 489 kts 134°
2026-04-22 14:29 0.64373 -50.46198 32951 ft 489 kts 134°
2026-04-22 14:30 0.59480 -50.41416 32950 ft 489 kts 134°
2026-04-22 14:30 0.54587 -50.36631 32947 ft 489 kts 134°
2026-04-22 14:31 0.49669 -50.31820 32938 ft 489 kts 134°
2026-04-22 14:31 0.44802 -50.27062 32940 ft 488 kts 134°
2026-04-22 14:32 0.39879 -50.22247 32951 ft 488 kts 134°
2026-04-22 14:32 0.35013 -50.17490 32949 ft 489 kts 134°
2026-04-22 14:33 0.30122 -50.12704 32951 ft 489 kts 134°
2026-04-22 14:33 0.25233 -50.07926 32944 ft 489 kts 134°
2026-04-22 14:34 0.20333 -50.03133 32935 ft 490 kts 134°
2026-04-22 14:34 0.15399 -49.98309 32942 ft 491 kts 134°
2026-04-22 14:35 0.10485 -49.93507 32950 ft 491 kts 134°
2026-04-22 14:35 0.05558 -49.88690 32948 ft 491 kts 134°
2026-04-22 14:36 0.00661 -49.83903 32951 ft 491 kts 134°
2026-04-22 14:36 -0.04224 -49.79127 32940 ft 490 kts 134°
2026-04-22 14:37 -0.09114 -49.74346 32936 ft 490 kts 134°
2026-04-22 14:37 -0.14017 -49.69550 32945 ft 490 kts 134°
2026-04-22 14:38 -0.18930 -49.64749 32955 ft 491 kts 134°
2026-04-22 14:38 -0.23855 -49.59930 32958 ft 490 kts 134°
2026-04-22 14:39 -0.28752 -49.55145 32961 ft 490 kts 134°
2026-04-22 14:39 -0.33638 -49.50368 32954 ft 489 kts 134°
2026-04-22 14:40 -0.40974 -49.43192 32952 ft 488 kts 134°
2026-04-22 14:40 -0.45035 -49.39222 32949 ft 488 kts 134°
2026-04-22 14:41 -0.49922 -49.34443 32950 ft 488 kts 134°
2026-04-22 14:41 -0.55614 -49.28877 32953 ft 487 kts 134°
2026-04-22 14:42 -0.60511 -49.24088 32948 ft 486 kts 134°
2026-04-22 14:42 -0.65339 -49.19367 32943 ft 485 kts 134°
2026-04-22 14:43 -0.70190 -49.14624 32947 ft 484 kts 134°
2026-04-22 14:43 -0.75063 -49.09858 32945 ft 484 kts 134°
2026-04-22 14:44 -0.79901 -49.05129 32945 ft 483 kts 134°
2026-04-22 14:44 -0.84724 -49.00408 32951 ft 482 kts 134°
2026-04-22 14:45 -0.89518 -48.95722 32948 ft 481 kts 134°
2026-04-22 14:45 -0.94347 -48.91000 32937 ft 480 kts 134°
2026-04-22 14:46 -0.99133 -48.86318 32943 ft 480 kts 134°
2026-04-22 14:46 -1.03901 -48.81654 32944 ft 479 kts 134°
2026-04-22 14:47 -1.08678 -48.76979 32939 ft 479 kts 134°
2026-04-22 14:47 -1.13509 -48.72254 32940 ft 480 kts 134°
2026-04-22 14:48 -1.18285 -48.67583 32940 ft 481 kts 134°
2026-04-22 14:48 -1.23117 -48.62858 32945 ft 481 kts 134°
2026-04-22 14:49 -1.27947 -48.58134 32939 ft 481 kts 134°
2026-04-22 14:49 -1.32748 -48.53437 32941 ft 480 kts 134°
2026-04-22 14:50 -1.37312 -48.48524 32941 ft 479 kts 123°
2026-04-22 14:50 -1.40189 -48.42482 32942 ft 480 kts 105°
2026-04-22 14:51 -1.41920 -48.35988 32945 ft 480 kts 104°
2026-04-22 14:51 -1.43691 -48.29577 32939 ft 478 kts 105°
2026-04-22 14:52 -1.45513 -48.23136 32932 ft 478 kts 105°
2026-04-22 14:52 -1.47332 -48.16762 32926 ft 477 kts 105°
2026-04-22 14:53 -1.49160 -48.10364 32926 ft 477 kts 105°
2026-04-22 14:53 -1.50989 -48.03968 32928 ft 477 kts 105°
2026-04-22 14:54 -1.52823 -47.97557 32930 ft 478 kts 105°
2026-04-22 14:54 -1.54658 -47.91141 32924 ft 478 kts 105°
2026-04-22 14:55 -1.56489 -47.84743 32928 ft 477 kts 105°
2026-04-22 14:55 -1.58319 -47.78331 32932 ft 477 kts 105°
2026-04-22 14:56 -1.60130 -47.71970 32925 ft 478 kts 105°
2026-04-22 14:56 -1.61970 -47.65510 32920 ft 479 kts 105°
2026-04-22 14:57 -1.63794 -47.59113 32926 ft 479 kts 105°
2026-04-22 14:57 -1.65628 -47.52676 32929 ft 479 kts 105°
2026-04-22 14:58 -1.67453 -47.46283 32932 ft 479 kts 105°
2026-04-22 14:58 -1.69273 -47.39898 32932 ft 478 kts 105°
2026-04-22 14:59 -1.71105 -47.33453 32930 ft 479 kts 105°
2026-04-22 14:59 -1.72924 -47.27060 32927 ft 479 kts 105°
2026-04-22 15:00 -1.74756 -47.20623 32932 ft 479 kts 105°
2026-04-22 15:00 -1.76579 -47.14216 32916 ft 478 kts 105°
2026-04-22 15:01 -1.78395 -47.07835 32914 ft 478 kts 105°
2026-04-22 15:01 -1.80227 -47.01401 32934 ft 479 kts 105°
2026-04-22 15:02 -1.82047 -46.95004 32940 ft 478 kts 105°
2026-04-22 15:02 -1.83872 -46.88589 32930 ft 479 kts 105°
2026-04-22 15:03 -1.85713 -46.82133 32939 ft 478 kts 105°
2026-04-22 15:03 -1.87540 -46.75719 32944 ft 478 kts 105°
2026-04-22 15:04 -1.89361 -46.69323 32938 ft 479 kts 105°
2026-04-22 15:04 -1.91193 -46.62891 32941 ft 479 kts 105°
2026-04-22 15:05 -1.93014 -46.56493 32940 ft 479 kts 105°
2026-04-22 15:05 -1.94836 -46.50070 32942 ft 479 kts 105°
2026-04-22 15:06 -1.96664 -46.43634 32939 ft 479 kts 105°
2026-04-22 15:06 -1.98483 -46.37232 32946 ft 479 kts 105°
2026-04-22 15:07 -2.00307 -46.30804 32937 ft 479 kts 105°
2026-04-22 15:07 -2.02132 -46.24377 32944 ft 479 kts 105°
2026-04-22 15:08 -2.03963 -46.17934 32946 ft 480 kts 105°
2026-04-22 15:08 -2.05791 -46.11499 32955 ft 481 kts 105°
2026-04-22 15:09 -2.07623 -46.05060 32946 ft 481 kts 105°
2026-04-22 15:09 -2.09460 -45.98598 32948 ft 480 kts 105°
2026-04-22 15:10 -2.11299 -45.92126 32947 ft 480 kts 105°
2026-04-22 15:10 -2.13121 -45.85707 32951 ft 481 kts 105°
2026-04-22 15:11 -2.14965 -45.79224 32945 ft 481 kts 105°
2026-04-22 15:11 -2.16794 -45.72773 32945 ft 482 kts 105°
2026-04-22 15:12 -2.18626 -45.66316 32942 ft 482 kts 105°
2026-04-22 15:12 -2.20464 -45.59836 32942 ft 482 kts 105°
2026-04-22 15:13 -2.22310 -45.53329 32946 ft 482 kts 105°
2026-04-22 15:13 -2.24134 -45.46902 32943 ft 482 kts 105°
2026-04-22 15:14 -2.25969 -45.40431 32941 ft 482 kts 105°
2026-04-22 15:14 -2.27810 -45.33934 32942 ft 483 kts 105°
2026-04-22 15:15 -2.29639 -45.27475 32948 ft 483 kts 105°
2026-04-22 15:15 -2.31477 -45.20988 32936 ft 483 kts 105°
2026-04-22 15:16 -2.33318 -45.14485 32924 ft 484 kts 105°
2026-04-22 15:16 -2.35157 -45.07996 32922 ft 484 kts 105°
2026-04-22 15:17 -2.36988 -45.01528 32920 ft 483 kts 105°
2026-04-22 15:17 -2.38830 -44.95020 32918 ft 483 kts 105°
2026-04-22 15:18 -2.40669 -44.88532 32916 ft 483 kts 105°
2026-04-22 15:18 -2.42497 -44.82072 32918 ft 483 kts 105°
2026-04-22 15:19 -2.44321 -44.75623 32921 ft 482 kts 105°
2026-04-22 15:19 -2.46158 -44.69126 32924 ft 482 kts 105°
2026-04-22 15:20 -2.47982 -44.62676 32921 ft 482 kts 105°
2026-04-22 15:20 -2.49808 -44.56216 32916 ft 481 kts 105°
2026-04-22 15:21 -2.51631 -44.49777 32922 ft 480 kts 105°
2026-04-22 15:21 -2.53454 -44.43330 32927 ft 480 kts 105°
2026-04-22 15:22 -2.55261 -44.36950 32927 ft 479 kts 105°
2026-04-22 15:22 -2.57084 -44.30509 32920 ft 478 kts 105°
2026-04-22 15:23 -2.58849 -44.24063 32926 ft 478 kts 103°
2026-04-22 15:23 -2.60307 -44.17532 32934 ft 477 kts 101°
2026-04-22 15:24 -2.61660 -44.11035 32925 ft 477 kts 101°
2026-04-22 15:24 -2.63023 -44.04541 32920 ft 477 kts 101°
2026-04-22 15:25 -2.64389 -43.98047 32920 ft 475 kts 101°
2026-04-22 15:25 -2.65760 -43.91541 32926 ft 475 kts 101°
2026-04-22 15:26 -2.67118 -43.85081 32921 ft 475 kts 101°
2026-04-22 15:26 -2.68489 -43.78569 32929 ft 476 kts 101°
2026-04-22 15:27 -2.69853 -43.72084 32927 ft 477 kts 101°
2026-04-22 15:27 -2.71228 -43.65559 32925 ft 478 kts 101°
2026-04-22 15:28 -2.72603 -43.59029 32930 ft 478 kts 101°
2026-04-22 15:28 -2.73984 -43.52469 32925 ft 479 kts 101°
2026-04-22 15:29 -2.75359 -43.45945 32918 ft 479 kts 101°
2026-04-22 15:30 -2.77204 -43.37199 32917 ft 479 kts 101°
2026-04-22 15:30 -2.78817 -43.29552 32917 ft 480 kts 101°
2026-04-22 15:31 -2.80193 -43.23027 32908 ft 482 kts 101°
2026-04-22 15:31 -2.81586 -43.16418 32904 ft 483 kts 101°
2026-04-22 15:32 -2.82968 -43.09864 32909 ft 483 kts 101°
2026-04-22 15:32 -2.84366 -43.03254 32914 ft 483 kts 101°
2026-04-22 15:33 -2.85755 -42.96675 32909 ft 483 kts 101°
2026-04-22 15:33 -2.87140 -42.90112 32905 ft 483 kts 101°
2026-04-22 15:34 -2.88538 -42.83497 32915 ft 482 kts 101°
2026-04-22 15:34 -2.89930 -42.76908 32916 ft 483 kts 101°
2026-04-22 15:35 -2.91080 -42.71431 32915 ft 484 kts 101°
2026-04-22 15:35 -2.92694 -42.63741 32915 ft 483 kts 101°
2026-04-22 15:36 -2.94083 -42.57125 32904 ft 483 kts 102°
2026-04-22 15:36 -2.95463 -42.50561 32910 ft 483 kts 102°
2026-04-22 15:37 -2.96859 -42.43949 32916 ft 483 kts 102°
2026-04-22 15:37 -2.98248 -42.37329 32908 ft 485 kts 102°
2026-04-22 15:38 -2.99648 -42.30682 32904 ft 487 kts 102°
2026-04-22 15:38 -3.01745 -42.20713 32905 ft 487 kts 102°
2026-04-22 15:39 -3.03138 -42.14098 32906 ft 487 kts 102°
2026-04-22 15:39 -3.04506 -42.07397 32911 ft 490 kts 102°
2026-04-22 15:40 -3.05860 -42.00717 32913 ft 491 kts 102°
2026-04-22 15:40 -3.07230 -41.93983 32911 ft 490 kts 102°
2026-04-22 15:41 -3.08593 -41.87288 32907 ft 490 kts 102°
2026-04-22 15:41 -3.09966 -41.80555 32918 ft 489 kts 102°
2026-04-22 15:42 -3.11329 -41.73890 32925 ft 489 kts 102°
2026-04-22 15:42 -3.12715 -41.67204 32937 ft 490 kts 102°
2026-04-22 15:43 -3.14108 -41.60477 32941 ft 489 kts 102°
2026-04-22 15:43 -3.15495 -41.53775 32935 ft 487 kts 102°
2026-04-22 15:44 -3.16872 -41.47128 32931 ft 487 kts 102°
2026-04-22 15:44 -3.18260 -41.40415 32932 ft 490 kts 102°
2026-04-22 15:45 -3.19642 -41.33727 32923 ft 491 kts 102°
2026-04-22 15:45 -3.21029 -41.27037 32916 ft 489 kts 102°
2026-04-22 15:46 -3.22414 -41.20363 32921 ft 487 kts 102°
2026-04-22 15:46 -3.23787 -41.13734 32928 ft 486 kts 102°
2026-04-22 15:47 -3.25168 -41.07074 32937 ft 487 kts 102°
2026-04-22 15:47 -3.26554 -41.00403 32950 ft 491 kts 101°
2026-04-22 15:48 -3.27943 -40.93684 32945 ft 491 kts 102°
2026-04-22 15:48 -3.29334 -40.86950 32937 ft 489 kts 102°
2026-04-22 15:49 -3.30702 -40.80307 32936 ft 488 kts 102°
2026-04-22 15:49 -3.32069 -40.73662 32929 ft 488 kts 102°
2026-04-22 15:50 -3.33452 -40.66959 32925 ft 487 kts 102°
2026-04-22 15:50 -3.34818 -40.60322 32933 ft 485 kts 102°
2026-04-22 15:51 -3.36153 -40.53832 32938 ft 485 kts 102°
2026-04-22 15:51 -3.37517 -40.47176 32952 ft 488 kts 102°
2026-04-22 15:52 -3.38872 -40.40517 32945 ft 488 kts 102°
2026-04-22 15:52 -3.40241 -40.33803 32930 ft 488 kts 102°
2026-04-22 15:53 -3.41587 -40.27200 32555 ft 484 kts 102°
2026-04-22 15:53 -3.42274 -40.23838 31342 ft 491 kts 101°
2026-04-22 15:53 -3.42956 -40.20506 30363 ft 492 kts 101°
2026-04-22 15:54 -3.43636 -40.17156 29361 ft 494 kts 101°
2026-04-22 15:54 -3.44258 -40.13788 28284 ft 497 kts 99°
2026-04-22 15:54 -3.44788 -40.10366 27210 ft 499 kts 97°
2026-04-22 15:54 -3.45256 -40.06974 26133 ft 501 kts 97°
2026-04-22 15:55 -3.45755 -40.03529 25225 ft 498 kts 98°
2026-04-22 15:55 -3.46335 -40.00131 24583 ft 490 kts 99°
2026-04-22 15:55 -3.46995 -39.96842 23866 ft 484 kts 101°
2026-04-22 15:55 -3.47697 -39.93547 23181 ft 477 kts 101°
2026-04-22 15:56 -3.48387 -39.90329 22477 ft 471 kts 101°
2026-04-22 15:56 -3.49064 -39.87157 21788 ft 465 kts 101°
2026-04-22 15:56 -3.49732 -39.84016 21088 ft 460 kts 101°
2026-04-22 15:56 -3.50391 -39.80914 20397 ft 456 kts 101°
2026-04-22 15:57 -3.51036 -39.77872 19694 ft 452 kts 101°
2026-04-22 15:57 -3.51687 -39.74810 19015 ft 446 kts 101°
2026-04-22 15:57 -3.52328 -39.71798 18338 ft 442 kts 101°
2026-04-22 15:57 -3.52964 -39.68812 17669 ft 437 kts 101°
2026-04-22 15:58 -3.53591 -39.65870 16988 ft 431 kts 101°
2026-04-22 15:58 -3.54207 -39.62981 16293 ft 427 kts 101°
2026-04-22 15:58 -3.54826 -39.60078 15603 ft 422 kts 101°
2026-04-22 15:58 -3.55434 -39.57222 14912 ft 417 kts 101°
2026-04-22 15:59 -3.56031 -39.54422 14220 ft 413 kts 101°
2026-04-22 15:59 -3.56625 -39.51638 13558 ft 408 kts 101°
2026-04-22 15:59 -3.57216 -39.48861 12865 ft 404 kts 101°
2026-04-22 15:59 -3.57791 -39.46160 12174 ft 400 kts 101°
2026-04-22 16:00 -3.58366 -39.43462 11655 ft 391 kts 101°
2026-04-22 16:00 -3.58924 -39.40851 11497 ft 373 kts 101°
2026-04-22 16:00 -3.59454 -39.38369 11318 ft 358 kts 101°
2026-04-22 16:00 -3.59965 -39.35979 11043 ft 340 kts 101°
2026-04-22 16:01 -3.60441 -39.33745 10867 ft 319 kts 101°
2026-04-22 16:01 -3.60888 -39.31651 10757 ft 299 kts 101°
2026-04-22 16:01 -3.61315 -39.29650 10622 ft 286 kts 101°
2026-04-22 16:01 -3.61725 -39.27729 10302 ft 280 kts 101°
2026-04-22 16:02 -3.62125 -39.25846 9925 ft 277 kts 101°
2026-04-22 16:02 -3.62525 -39.23967 9527 ft 275 kts 101°
2026-04-22 16:02 -3.62923 -39.22095 9106 ft 273 kts 101°
2026-04-22 16:02 -3.63320 -39.20234 8685 ft 272 kts 101°
2026-04-22 16:03 -3.63680 -39.18393 8261 ft 271 kts 99°
2026-04-22 16:03 -3.64000 -39.16535 7876 ft 267 kts 99°
2026-04-22 16:03 -3.64304 -39.14774 7766 ft 252 kts 99°
2026-04-22 16:03 -3.64599 -39.13083 7556 ft 243 kts 99°
2026-04-22 16:04 -3.64889 -39.11436 7270 ft 236 kts 99°
2026-04-22 16:04 -3.65172 -39.09834 6911 ft 232 kts 99°
2026-04-22 16:04 -3.65450 -39.08252 6507 ft 230 kts 100°
2026-04-22 16:04 -3.65726 -39.06691 6073 ft 229 kts 100°
2026-04-22 16:05 -3.65910 -39.05653 5824 ft 225 kts 100°
2026-04-22 16:05 -3.66260 -39.03682 5520 ft 211 kts 100°
2026-04-22 16:05 -3.66513 -39.02256 5201 ft 204 kts 100°
2026-04-22 16:05 -3.66757 -39.00879 4726 ft 201 kts 100°
2026-04-22 16:06 -3.66997 -38.99529 4167 ft 199 kts 99°
2026-04-22 16:06 -3.67239 -38.98167 3602 ft 198 kts 99°
2026-04-22 16:06 -3.67479 -38.96817 3044 ft 196 kts 99°
2026-04-22 16:06 -3.67716 -38.95480 2477 ft 196 kts 99°
2026-04-22 16:07 -3.67952 -38.94146 1932 ft 195 kts 99°
2026-04-22 16:07 -3.68185 -38.92832 1734 ft 193 kts 99°
2026-04-22 16:07 -3.68422 -38.91491 1693 ft 196 kts 99°
2026-04-22 16:07 -3.68658 -38.90161 1678 ft 195 kts 99°
2026-04-22 16:08 -3.68896 -38.88817 1672 ft 194 kts 99°
2026-04-22 16:08 -3.69131 -38.87491 1696 ft 191 kts 99°
2026-04-22 16:08 -3.69354 -38.86232 1641 ft 177 kts 99°
2026-04-22 16:08 -3.69562 -38.85064 1668 ft 167 kts 99°
2026-04-22 16:09 -3.69740 -38.83916 1688 ft 164 kts 96°
2026-04-22 16:09 -3.69888 -38.82786 1676 ft 163 kts 97°
2026-04-22 16:09 -3.70092 -38.81664 1682 ft 163 kts 102°
2026-04-22 16:09 -3.70356 -38.80556 1678 ft 163 kts 103°
2026-04-22 16:10 -3.70637 -38.79452 1678 ft 163 kts 103°
2026-04-22 16:10 -3.70923 -38.78352 1682 ft 163 kts 104°
2026-04-22 16:10 -3.71120 -38.77616 1679 ft 163 kts 104°
2026-04-22 16:10 -3.71512 -38.76151 1685 ft 163 kts 104°
2026-04-22 16:11 -3.71805 -38.75048 1678 ft 163 kts 104°
2026-04-22 16:11 -3.72097 -38.73959 1683 ft 163 kts 104°
2026-04-22 16:11 -3.72391 -38.72855 1682 ft 164 kts 104°
2026-04-22 16:11 -3.72686 -38.71753 1680 ft 164 kts 104°
2026-04-22 16:12 -3.72978 -38.70659 1682 ft 163 kts 104°
2026-04-22 16:12 -3.73273 -38.69553 1681 ft 163 kts 104°
2026-04-22 16:12 -3.73565 -38.68461 1678 ft 163 kts 104°
2026-04-22 16:12 -3.73861 -38.67361 1680 ft 163 kts 104°
2026-04-22 16:13 -3.74157 -38.66260 1679 ft 163 kts 104°
2026-04-22 16:13 -3.74449 -38.65161 1679 ft 164 kts 104°
2026-04-22 16:13 -3.74745 -38.64056 1680 ft 164 kts 104°
2026-04-22 16:13 -3.75037 -38.62964 1679 ft 162 kts 104°
2026-04-22 16:14 -3.75332 -38.61858 1517 ft 164 kts 104°
2026-04-22 16:14 -3.75621 -38.60772 1308 ft 162 kts 105°
2026-04-22 16:14 -3.75914 -38.59672 1123 ft 163 kts 105°
2026-04-22 16:14 -3.76203 -38.58582 901 ft 162 kts 105°
2026-04-22 16:15 -3.76497 -38.57485 703 ft 161 kts 106°
2026-04-22 16:15 -3.76784 -38.56408 506 ft 161 kts 106°
2026-04-22 16:15 -3.76973 -38.55677 340 ft 161 kts 106°
2026-04-22 16:15 -3.77356 -38.54241 95 ft 149 kts 107°
2026-04-22 16:16 -3.77571 -38.53515 95 ft 75 kts 106°
2026-04-22 16:16 -3.77667 -38.53123 93 ft 44 kts 104°
2026-04-22 16:16 -3.77743 -38.52854 91 ft 36 kts 107°
2026-04-22 16:16 -3.77793 -38.52670 90 ft 17 kts 104°
2026-04-22 16:17 -3.77828 -38.52626 90 ft 5 kts 185°
2026-04-22 16:17 -3.77873 -38.52665 90 ft 9 kts 232°
2026-04-22 16:17 -3.77909 -38.52722 91 ft 13 kts 248°
2026-04-22 16:17 -3.77909 -38.52829 92 ft 16 kts 282°
2026-04-22 16:18 -3.77881 -38.52945 93 ft 17 kts 284°
2026-04-22 16:18 -3.77848 -38.53065 93 ft 18 kts 286°
2026-04-22 16:18 -3.77813 -38.53188 94 ft 18 kts 285°
2026-04-22 16:18 -3.77778 -38.53316 95 ft 19 kts 285°
2026-04-22 16:19 -3.77744 -38.53444 96 ft 16 kts 284°
2026-04-22 16:19 -3.77745 -38.53498 96 ft 4 kts 234°
2026-04-22 16:19 -3.77770 -38.53515 97 ft 4 kts 201°
2026-04-22 16:19 -3.77791 -38.53522 97 ft 0 kts 197°